Temperature
18 18 18 18 17 17 17 17 17 17 17 17 16 16 16 16 16 16 16 16 16 16 16 16 16 16 16 16 16 16 16 16 16 16 16 16 16 15 15 15 15 15 15
18 18 18 18 17 17 17 17 17 17 17 16 16 16 16 16 16 16 16 16 16 16 16 16 16 16 16 16 16 16 16 16 16 15 15 15 15 15 15 15 15 15 15
18 18 18 17 17 17 17 17 17 16 16 16 16 16 16 16 16 16 16 16 16 15 15 15 15 15 15 15 15 15 15 15 15 15 15 15 15 15 15 15 15 14 14
18 18 17 17 17 17 17 16 16 16 16 16 16 16 16 16 16 16 16 15 15 15 15 15 15 15 15 15 15 15 15 15 15 15 15 15 15 15 14 14 14 14 14
18 18 17 17 17 17 16 16 16 16 16 16 16 16 16 15 16 16 15 15 15 15 15 15 15 15 15 14 14 14 14 14 14 14 14 14 14 14 14 14 14 14 14
18 18 17 17 17 16 16 16 16 16 16 15 15 15 15 15 15 15 15 15 15 14 14 14 14 14 14 14 14 14 14 14 14 14 14 14 14 14 14 14 14 14 13
17 17 17 17 16 16 16 16 16 16 15 15 15 15 15 15 15 15 15 15 15 14 14 14 14 14 14 14 14 14 14 14 14 14 14 14 14 14 14 14 14 14 14
17 17 17 16 16 16 16 16 16 16 15 15 15 15 15 15 15 15 15 15 14 14 14 14 14 14 14 14 14 14 14 14 14 14 14 14 14 14 14 13 13 13 13
17 16 16 16 16 16 16 16 15 15 15 15 15 15 14 15 15 15 14 14 14 14 14 14 14 13 13 13 13 13 13 14 14 13 13 13 14 14 13 13 13 13 13
17 16 16 16 16 16 15 15 15 15 15 15 15 15 15 15 15 14 14 14 14 14 13 13 13 13 13 13 13 13 13 13 13 13 13 13 13 13 13 13 13 13 13
16 16 16 16 16 15 15 15 15 15 15 15 15 14 14 14 14 14 14 14 14 13 13 13 13 13 13 13 13 13 13 13 13 13 13 13 13 13 13 13 13 13 13
16 16 16 15 15 15 15 15 15 14 14 14 14 14 14 14 14 14 14 14 13 13 13 13 13 13 13 13 13 13 13 13 13 13 13 13 13 13 13 13 13 13 13
16 16 15 15 15 15 15 15 14 14 14 14 14 14 14 14 14 14 14 13 13 13 13 13 13 13 13 13 13 13 13 13 13 12 12 13 13 13 13 13 13 13 13
16 15 15 15 15 15 15 14 14 14 14 14 14 14 14 14 14 14 13 13 13 13 13 13 13 13 12 12 12 12 12 12 12 12 12 12 12 13 13 13 13 13 13
15 15 15 15 15 15 14 14 14 14 14 14 14 14 14 13 13 13 13 13 13 13 12 12 12 12 12 12 12 12 12 12 12 12 12 12 12 12 12 13 13 12 12
15 15 15 15 14 14 14 14 14 14 14 14 14 14 14 13 13 13 13 13 13 12 12 12 12 12 12 12 12 12 12 12 12 12 12 12 12 12 12 12 12 12 12
15 15 15 15 15 14 14 14 14 14 14 14 14 14 14 13 13 13 13 13 12 12 12 12 11 12 12 12 12 12 12 12 12 12 12 12 12 12 12 12 12 12 12
15 15 15 14 14 14 14 14 14 14 14 14 14 14 13 13 13 13 12 12 12 12 12 12 11 11 11 11 11 12 12 12 12 12 12 12 12 12 12 12 12 12 12
14 14 14 14 14 14 14 14 14 14 14 13 13 13 13 13 13 12 12 12 12 12 12 11 11 11 11 11 11 11 11 11 11 11 11 12 12 12 12 12 12 12 12
14 14 14 14 14 14 14 14 14 13 13 13 13 13 13 13 12 12 12 12 12 12 12 11 11 11 11 11 11 11 11 11 11 11 11 11 11 11 11 11 11 11 11
14 14 14 14 14 14 14 13 14 13 13 13 13 13 13 12 12 12 12 12 12 12 11 11 11 11 11 11 11 11 11 11 11 11 11 11 11 11 11 11 11 11 11
13 13 13 13 13 13 13 13 13 13 13 13 13 13 13 12 12 12 12 12 12 11 11 11 11 11 11 11 11 11 11 11 11 11 11 11 11 11 11 11 11 11 11
13 13 13 13 13 13 13 13 13 13 13 13 13 13 12 12 12 12 12 12 11 11 11 11 11 11 11 10 10 10 10 10 10 10 10 10 11 11 11 11 11 11 11
13 13 13 13 13 13 13 13 13 13 13 13 12 12 12 12 12 12 12 11 11 11 11 11 11 11 10 10 10 10 10 10 10 10 10 10 10 10 10 10 10 10 10
13 13 13 13 13 13 13 13 13 12 12 12 12 12 12 12 12 11 11 11 11 11 11 11 10 10 10 10 10 10 10 10 10 10 10 10 10 10 10 10 10 10 10
13 13 13 13 13 13 13 12 12 12 12 12 12 12 12 12 12 11 11 11 11 11 10 10 10 10 10 10 10 10 10 10 10 10 10 10 10 10 10 9 9 9 9
Wind_Speed
6 5 4 5 4 4 3 2 1 1 1 1 1 2 2 2 2 2 3 2 2 3 3 2 2 3 2 2 2 2 1 1 2 2 1 1 2 2 3 3 5 6 7
5 4 5 4 4 5 4 3 2 2 2 2 2 2 3 2 2 2 3 3 2 3 3 2 2 3 2 2 2 2 2 2 2 3 2 2 2 3 3 3 3 4 5
5 5 4 4 4 4 3 3 2 2 2 3 3 3 3 2 3 2 2 3 3 3 3 3 3 3 3 2 2 2 2 3 2 3 3 2 2 2 2 3 3 2 4
5 4 3 3 2 2 2 2 2 2 3 3 3 3 3 3 2 2 2 3 3 2 3 3 3 3 3 3 3 3 3 3 3 3 3 3 3 3 3 3 3 3 3
5 4 4 3 2 2 2 3 2 3 4 3 3 3 3 3 3 2 3 3 2 3 3 3 3 3 3 3 4 3 3 3 4 4 3 3 3 3 3 3 4 3 3
4 4 3 3 2 2 3 3 3 3 3 3 3 3 4 4 2 1 2 3 3 4 4 3 3 2 2 3 4 4 4 5 5 4 4 4 4 3 2 3 3 2 3
3 3 3 2 3 3 3 3 3 3 3 3 3 3 4 3 2 2 2 3 4 4 4 3 4 3 2 2 4 5 5 6 6 5 5 5 4 4 4 4 4 4 4
3 3 3 3 3 3 3 3 3 3 3 4 4 4 4 4 4 3 3 4 4 4 4 4 3 3 3 3 4 4 4 5 6 6 6 6 6 4 5 5 5 5 3
3 3 3 3 3 3 3 3 4 4 4 4 4 4 4 4 5 4 3 3 4 4 5 3 3 3 3 3 4 4 4 5 5 5 6 6 7 7 5 3 3 4 4
3 3 2 3 3 4 3 4 4 4 4 5 5 4 5 4 6 6 5 3 3 3 3 2 3 3 3 3 3 3 4 4 4 4 4 5 7 8 9 7 5 5 4
3 3 3 3 4 4 4 4 4 4 5 5 5 5 5 5 6 7 7 4 3 3 3 2 1 2 3 4 4 4 5 5 4 4 4 4 5 5 6 7 7 6 5
2 3 3 4 5 5 3 4 4 5 6 6 5 6 5 4 5 7 9 7 5 4 3 3 2 2 4 5 5 5 6 4 4 4 4 4 4 4 5 5 6 6 6
2 3 4 4 4 4 4 5 5 5 6 5 5 5 4 3 3 6 7 8 7 4 3 4 4 5 5 5 7 7 5 4 4 4 5 4 4 4 4 4 5 5 5
3 3 3 4 5 4 4 4 4 4 5 4 4 4 3 2 2 2 2 2 3 2 2 3 4 6 6 6 5 5 5 4 4 4 4 4 3 3 3 3 3 3 4
4 4 5 5 5 3 3 3 4 3 3 4 4 3 3 3 2 3 2 2 1 1 2 3 3 3 3 3 4 4 4 4 4 4 4 4 3 3 3 2 2 2 3
4 5 5 5 4 4 4 3 1 2 3 4 4 4 3 3 4 4 3 4 4 4 2 3 4 4 4 4 3 3 3 3 3 3 3 3 3 3 3 2 2 2 3
5 5 6 5 5 5 5 4 3 2 2 3 5 5 5 5 4 4 4 3 4 4 3 4 4 4 4 4 4 3 3 2 2 2 3 3 3 3 3 3 3 3 3
6 6 6 5 5 5 4 4 4 4 4 3 3 6 7 7 6 6 4 1 2 4 4 4 4 4 3 3 3 3 3 3 3 3 3 3 3 3 3 3 3 3 3
6 5 5 5 4 4 4 4 4 3 3 3 2 3 5 6 6 6 5 3 4 4 4 4 3 3 3 3 3 3 3 3 2 3 3 3 3 3 3 3 3 4 4
5 6 5 5 5 5 4 4 4 3 3 3 3 3 4 4 4 4 5 5 5 4 3 3 3 3 3 2 2 2 2 2 3 3 3 3 3 3 3 3 3 3 3
5 5 6 5 5 5 4 5 4 4 4 3 3 3 5 5 5 5 5 5 4 3 3 3 2 3 3 2 2 3 3 3 3 3 3 3 3 3 3 3 3 3 3
5 5 5 5 4 3 4 5 5 4 4 3 3 3 6 4 4 4 4 4 3 3 3 2 2 2 2 2 2 2 3 3 2 2 3 3 2 3 3 3 2 2 2
5 5 4 3 3 4 5 4 3 3 3 2 3 3 3 3 3 3 3 3 3 3 2 2 2 2 1 1 1 1 2 2 2 2 3 3 3 3 3 3 3 3 3
5 4 4 3 3 4 3 3 3 3 2 2 2 2 2 3 2 2 2 2 2 2 2 2 2 1 1 1 1 1 1 2 2 2 3 3 4 3 3 3 4 4 3
4 3 3 3 3 3 2 2 2 2 2 2 2 2 3 3 2 2 2 2 1 1 1 0 1 1 1 2 1 1 1 1 1 2 3 3 4 4 4 5 4 4 4
4 3 3 3 3 2 2 2 2 2 2 2 2 2 2 2 1 1 1 1 1 1 0 1 1 1 1 1 0 0 0 1 2 3 3 3 4 4 4 4 5 4 5
Wind_Direction
178 179 182 186 199 207 215 218 236 243 219 193 208 226 221 226 241 257 275 276 263 271 276 269 273 280 292 295 283 283 271 232 237 270 295 213 174 169 158 175 184 184 192
169 172 191 189 194 204 208 207 210 235 239 210 215 238 244 235 239 245 262 280 269 267 270 271 267 275 278 288 285 274 268 243 212 234 257 242 207 185 182 203 198 202 198
163 170 178 190 199 209 213 213 209 222 241 240 230 231 243 249 247 251 251 267 267 270 273 266 260 266 268 275 277 268 266 260 229 221 243 236 216 203 198 213 212 219 229
160 167 165 187 207 212 217 219 221 225 237 242 242 240 237 241 246 249 255 254 257 267 273 268 262 256 252 254 259 255 253 262 255 233 227 220 213 207 202 211 222 227 235
164 171 178 188 201 217 220 219 219 231 238 240 245 249 248 236 239 236 253 257 264 265 267 269 265 258 249 250 260 257 258 257 258 252 232 234 230 211 214 214 226 229 229
165 178 172 182 197 215 232 226 211 220 238 242 240 247 255 256 236 221 249 272 264 261 265 270 268 239 229 235 266 263 253 247 249 253 254 242 242 242 235 235 234 234 244
171 176 174 196 214 226 243 229 220 224 223 230 237 239 238 236 208 219 240 266 266 262 262 263 270 265 234 248 251 253 255 251 241 241 252 254 246 244 241 245 241 237 238
180 179 183 205 218 224 240 236 228 232 235 239 237 234 237 226 208 218 229 252 261 262 259 246 247 262 264 264 262 258 257 255 244 238 243 251 245 237 235 235 242 249 245
199 200 208 218 231 230 236 237 231 234 238 239 236 233 236 221 210 208 210 253 256 264 263 249 231 242 255 258 253 258 267 271 266 249 234 237 233 235 230 230 240 244 250
213 219 220 219 233 241 239 251 246 241 242 248 246 239 240 229 211 207 204 239 257 271 270 246 234 242 247 252 252 260 267 274 275 273 260 245 235 227 218 214 221 234 245
216 218 221 225 234 237 234 240 245 241 246 246 249 245 240 230 209 205 201 226 253 266 272 270 263 237 243 247 248 252 257 274 282 269 259 253 242 228 218 213 213 218 229
213 223 228 235 248 247 239 241 237 234 240 242 243 245 238 211 203 202 200 216 242 261 265 272 282 275 261 254 252 250 262 271 269 265 259 254 245 233 224 218 209 213 222
224 233 235 239 246 242 232 242 238 232 238 239 234 234 227 195 186 192 203 221 234 243 264 278 286 275 271 259 250 248 250 250 252 256 256 255 249 235 223 216 216 216 225
239 244 239 235 236 238 235 237 238 236 237 241 241 242 231 192 181 175 211 216 214 232 283 297 273 260 262 259 257 247 235 235 242 252 259 262 258 244 224 221 224 221 230
244 246 246 242 238 231 234 253 255 252 239 241 247 245 236 226 193 185 211 227 208 210 279 282 267 256 250 245 239 239 240 232 237 247 258 265 258 251 245 226 217 219 230
249 252 253 244 237 231 225 240 291 245 213 209 210 209 224 202 188 190 200 211 211 208 232 260 263 253 252 256 253 248 245 244 241 255 262 267 262 251 244 233 214 225 235
257 255 255 248 239 235 230 226 234 251 244 231 223 206 200 206 205 207 215 226 228 205 228 252 258 251 250 253 256 253 251 246 239 245 258 264 261 262 254 242 230 228 236
259 257 257 256 255 245 238 235 235 227 227 239 239 213 199 199 205 209 203 199 249 228 235 245 255 252 247 250 253 252 251 242 238 238 247 259 262 262 257 244 238 234 240
258 255 253 259 262 257 246 244 244 243 231 220 210 207 198 195 204 213 195 224 238 245 251 253 254 255 254 254 259 255 256 255 249 244 242 246 249 252 257 253 252 244 239
255 262 254 253 251 244 240 241 242 233 225 219 219 207 183 185 202 209 210 225 234 238 241 250 258 269 262 255 257 258 259 263 261 253 248 251 253 253 259 256 255 251 244
256 252 248 249 248 254 252 243 238 230 227 227 215 203 195 210 215 211 210 216 222 230 241 243 244 256 258 252 253 251 250 252 255 264 258 255 256 251 249 253 249 239 235
257 251 243 239 244 253 260 252 245 237 220 210 205 199 198 218 223 215 209 213 216 220 224 231 238 249 249 258 262 268 268 274 275 280 279 270 267 263 257 257 256 254 252
252 252 250 232 228 225 239 249 245 238 229 220 218 204 206 225 229 221 209 197 200 216 215 231 242 249 252 247 247 262 263 274 284 281 281 279 272 267 260 253 253 252 257
252 252 250 240 230 224 230 244 243 237 230 226 222 212 216 218 226 223 213 197 199 223 227 238 240 240 292 299 276 273 270 283 289 270 271 272 276 279 268 256 256 257 256
256 255 250 244 239 235 240 248 249 241 235 238 230 231 236 224 212 207 196 195 203 233 251 259 274 272 263 269 264 278 321 340 321 305 266 263 268 272 275 273 267 267 261
247 242 243 244 248 241 241 247 259 258 254 254 245 249 255 245 213 181 174 209 236 236 218 256 282 291 262 242 228 189 131 331 319 305 279 267 270 270 272 272 272 270 270
Height
1504 1505 1506 1507 1508 1509 1509 1510 1511 1512 1512 1512 1512 1512 1513 1513 1513 1514 1514 1514 1514 1514 1515 1515 1515 1515 1515 1515 1516 1516 1516 1517 1516 1517 1518 1518 1519 1519 1518 1518 1518 1519 1519
1501 1502 1504 1505 1506 1506 1507 1508 1508 1509 1509 1510 1510 1510 1510 1511 1511 1511 1511 1512 1512 1512 1512 1512 1511 1512 1512 1512 1512 1513 1513 1514 1514 1514 1515 1516 1516 1516 1516 1516 1516 1516 1516
1499 1500 1502 1503 1504 1504 1505 1505 1506 1506 1506 1507 1507 1508 1508 1508 1508 1508 1508 1509 1509 1509 1509 1509 1508 1508 1508 1508 1509 1509 1510 1511 1511 1511 1511 1513 1513 1513 1513 1514 1514 1514 1514
1497 1498 1499 1500 1501 1502 1502 1502 1503 1503 1503 1504 1504 1505 1505 1505 1506 1506 1506 1506 1505 1505 1505 1505 1505 1505 1505 1505 1505 1506 1506 1507 1508 1508 1508 1509 1510 1510 1511 1510 1510 1510 1510
1496 1496 1497 1498 1499 1499 1499 1500 1500 1500 1501 1501 1501 1502 1502 1502 1503 1503 1503 1503 1502 1502 1502 1502 1502 1502 1502 1502 1502 1502 1503 1503 1504 1505 1505 1506 1506 1507 1507 1507 1507 1507 1507
1494 1495 1495 1496 1496 1496 1497 1497 1497 1497 1497 1498 1498 1498 1499 1500 1500 1500 1499 1499 1499 1499 1499 1499 1499 1499 1498 1499 1499 1499 1500 1500 1500 1501 1501 1502 1502 1503 1503 1504 1504 1504 1504
1492 1493 1493 1494 1494 1494 1494 1494 1494 1494 1494 1494 1494 1495 1495 1496 1496 1496 1496 1496 1496 1496 1496 1495 1496 1496 1496 1495 1495 1495 1496 1497 1497 1497 1497 1497 1498 1499 1500 1500 1500 1500 1500
1490 1491 1491 1491 1491 1491 1491 1491 1491 1491 1491 1491 1491 1491 1491 1492 1492 1493 1493 1493 1492 1492 1492 1492 1492 1492 1492 1492 1492 1492 1492 1493 1493 1494 1493 1494 1494 1495 1496 1496 1496 1497 1497
1488 1488 1489 1489 1489 1489 1489 1488 1488 1488 1489 1489 1488 1488 1488 1488 1489 1489 1490 1490 1489 1489 1489 1489 1489 1489 1489 1489 1489 1488 1488 1489 1489 1490 1490 1490 1490 1491 1491 1492 1493 1493 1493
1485 1486 1486 1486 1486 1486 1486 1486 1486 1486 1485 1486 1485 1486 1486 1486 1486 1486 1487 1487 1486 1486 1486 1486 1486 1486 1486 1486 1485 1485 1484 1485 1485 1485 1485 1486 1486 1486 1487 1488 1488 1489 1489
1483 1483 1483 1483 1483 1483 1483 1482 1482 1482 1482 1483 1482 1482 1482 1483 1483 1484 1484 1484 1484 1483 1483 1483 1483 1483 1482 1482 1482 1482 1481 1482 1481 1482 1481 1481 1482 1482 1482 1483 1484 1485 1485
1480 1480 1479 1479 1480 1480 1479 1479 1479 1479 1479 1479 1479 1479 1479 1479 1480 1480 1480 1480 1480 1480 1480 1480 1480 1480 1479 1479 1478 1478 1478 1478 1478 1478 1478 1478 1478 1478 1478 1479 1480 1481 1481
1477 1476 1476 1476 1476 1476 1476 1476 1476 1476 1476 1476 1476 1476 1476 1476 1477 1477 1477 1477 1477 1477 1477 1477 1476 1476 1475 1475 1475 1475 1475 1474 1474 1474 1474 1474 1475 1475 1475 1476 1476 1477 1477
1473 1473 1473 1473 1472 1473 1472 1472 1472 1472 1472 1472 1472 1472 1473 1473 1473 1473 1473 1473 1474 1474 1473 1473 1473 1472 1472 1471 1471 1471 1471 1471 1471 1471 1471 1471 1472 1472 1472 1473 1473 1473 1474
1470 1470 1470 1469 1469 1469 1469 1469 1468 1468 1469 1469 1469 1469 1469 1469 1469 1470 1470 1470 1470 1470 1470 1470 1469 1469 1468 1468 1468 1468 1468 1468 1468 1468 1468 1469 1469 1469 1469 1470 1470 1470 1470
1466 1466 1466 1466 1466 1465 1465 1465 1464 1464 1464 1465 1465 1465 1465 1466 1466 1466 1467 1467 1467 1467 1467 1466 1466 1466 1465 1465 1465 1465 1465 1465 1465 1465 1466 1466 1466 1466 1466 1467 1467 1467 1467
1463 1463 1463 1462 1462 1462 1462 1461 1460 1460 1460 1461 1461 1461 1462 1462 1463 1463 1463 1463 1464 1464 1464 1464 1464 1463 1462 1462 1462 1462 1462 1462 1462 1462 1463 1463 1463 1463 1463 1463 1464 1464 1464
1459 1459 1459 1459 1459 1458 1458 1458 1457 1457 1456 1456 1457 1457 1458 1458 1459 1460 1460 1460 1460 1460 1461 1461 1461 1461 1460 1459 1459 1459 1459 1459 1459 1460 1460 1460 1460 1460 1460 1460 1460 1461 1461
1455 1455 1455 1455 1455 1454 1454 1454 1454 1454 1454 1453 1453 1454 1455 1455 1456 1456 1457 1457 1457 1457 1458 1458 1458 1457 1457 1456 1456 1455 1455 1456 1456 1457 1457 1457 1457 1457 1457 1457 1457 1457 1457
1451 1451 1451 1451 1451 1451 1451 1451 1451 1451 1450 1450 1450 1451 1451 1450 1451 1452 1453 1453 1454 1454 1454 1454 1454 1454 1453 1453 1453 1452 1452 1453 1453 1454 1454 1454 1454 1454 1454 1454 1454 1454 1454
1447 1447 1447 1447 1447 1447 1447 1447 1447 1447 1447 1447 1447 1448 1448 1448 1448 1449 1449 1450 1451 1451 1451 1451 1450 1450 1450 1449 1449 1449 1449 1450 1450 1450 1450 1451 1451 1451 1451 1451 1451 1451 1451
1444 1444 1444 1443 1443 1444 1444 1443 1444 1444 1444 1444 1445 1445 1445 1445 1445 1446 1447 1447 1448 1448 1448 1447 1447 1447 1446 1446 1445 1445 1446 1446 1446 1446 1447 1447 1447 1447 1447 1447 1447 1447 1447
1441 1441 1441 1440 1440 1441 1441 1441 1441 1441 1441 1441 1442 1442 1442 1442 1442 1443 1444 1444 1445 1445 1444 1444 1444 1444 1443 1443 1442 1442 1442 1442 1443 1443 1443 1443 1444 1444 1444 1444 1444 1444 1444
1438 1438 1438 1438 1438 1438 1438 1437 1438 1438 1438 1439 1439 1439 1439 1440 1440 1441 1441 1441 1441 1441 1441 1441 1441 1440 1440 1439 1439 1438 1438 1439 1439 1439 1439 1440 1440 1440 1440 1440 1440 1441 1441
1435 1435 1435 1435 1435 1435 1435 1435 1435 1436 1436 1436 1436 1437 1438 1438 1438 1438 1438 1438 1438 1438 1438 1438 1437 1437 1436 1435 1435 1434 1434 1434 1435 1434 1435 1435 1435 1436 1436 1436 1436 1437 1437
1433 1432 1432 1433 1433 1433 1433 1433 1433 1434 1434 1435 1435 1435 1436 1436 1436 1436 1436 1435 1435 1435 1435 1434 1434 1433 1432 1431 1431 1430 1430 1430 1430 1430 1430 1430 1431 1431 1432 1432 1432 1432 1433